Weather in Solnechny

Russia / Krasnoyarsk Krai     55°17′15″N   89°49′38″E
temp.,
°C
wind,
m/s
gust,
m/s
humid.,
%
clouds,
%
prec.,
mm/h
press.,
hPa
HPBL,
m
8 march, mon
mon801:00−14ssw227644 0.0 102420
04:00−15s238539 0.0 102421
07:00−16sse239120 0.0 102424
10:00−12sse369162 0.0 1020164
13:00−6sse488877 0.0 1016295
16:00−4sse3691100 0.0 1012251
19:00−5s3490100 0.0 101076
22:00−5ssw41081100 0.0 1010160
9 march, tue
tue901:00−4ssw4784100 0.0 1010135
04:00−5wsw348467 0.0 101353
07:00−9w348372 0.1 101872
10:00−9sw31279100 0.0 10231129
13:00−6w7136754 0.0 10251399
16:00−6wsw5117420 0.0 10261318
19:00−10ssw347926 0.0 102630
22:00−12s338287 0.0 102431
10 march, wed
wed1001:00−12s338694 0.0 102348
04:00−12s3386100 0.0 102149
07:00−13ssw3481100 0.0 102139
10:00−9s3587100 0.0 1019162
13:000sw3890100 0.0 1018963
16:000sw259337 0.0 1018460
19:00−5e129029 0.0 101621
22:00−7sse228656 0.0 101421
11 march, thu
thu1101:00−7s349178 0.0 101071
04:00−7sse4991100 0.0 1005177
07:00−7s4991100 0.0 1004179
10:00+1s4158799 0.0 10051131
13:00+2sw4159096 0.1 10081410
16:000wsw31371100 0.0 10111291
19:00−5sw3473100 0.0 101336
22:00−7ssw3682100 0.0 1016103
12 march, fri
fri1201:00−9ssw3479100 0.0 101849
04:00−12s337761 0.0 101923
07:00−11s5117954 0.0 1016175
10:00−6ssw6168470 0.0 10151437
13:00−6wsw10196184 0.1 10171938
16:00−8wsw7156767 0.0 10191677
19:00−13sw457633 0.0 102075
22:00−16wsw348159 0.0 102338